Location: Pinhead Observatory
(34.4473°N, 118.1985°W)
Time: 10:39:19
(UTC-07:00)

Daily predictions for brighter satellites

Satellite Brightness Start Highest point End
(mag) Time Altitude Azimuth Time Altitude Azimuth Time Altitude Azimuth
Cosmos 1980 Rocket 2.3 20:26:54 10° NNW 20:32:36 87° ENE 20:38:18 10° SSE
Meteor 1-24 Rocket 3.9 20:31:17 10° S 20:36:58 83° W 20:42:29 10° N
Cosmos 1697 Rocket 3.7 20:33:57 10° NNW 20:39:20 47° WSW 20:44:42 10° S
Cosmos 1408 Rocket 3.7 20:35:33 10° S 20:39:58 84° W 20:44:23 10° N
Cosmos 540 Rocket 3.5 20:37:46 10° NNW 20:42:57 74° ENE 20:48:05 10° SSE
FENGYUN 3A 3.8 20:37:38 10° SSE 20:43:03 88° WSW 20:48:30 10° NNW
Cosmos 1674 4.4 20:45:09 10° SE 20:47:36 17° E 20:50:05 10° NE
USA 229 DEB 3.8 20:41:34 10° S 20:48:14 53° ESE 20:54:58 10° NE
USA 229 3.9 20:41:41 10° S 20:48:20 53° ESE 20:55:03 10° NE
YAOGAN 11 4.1 20:44:16 10° SSE 20:48:31 67° ENE 20:52:49 10° N
Cosmos 332 Rocket 3.9 20:43:51 10° N 20:48:40 65° ENE 20:53:29 10° SSE
DELTA 2 R/B(2) 2.6 20:50:36 10° WSW 20:52:12 85° N 20:54:00 10° ENE
Meteor 2-1 Rocket 4.5 20:47:56 10° NNW 20:53:33 74° W 20:59:03 10° S
Cosmos 1437 Rocket 4.3 20:50:52 10° NNE 20:53:41 19° ENE 20:56:06 12° ESE
GPS 2-04 Rocket1 2.9 20:50:10 10° W 20:54:33 74° SSW 20:58:33 12° ESE
CZ-2D R/B 4.4 20:51:58 10° S 20:55:41 44° W 20:59:25 10° NNW
H-2A R/B 3.4 20:52:05 10° S 20:55:53 57° W 20:59:39 10° NNW
Cosmos 968 Rocket 3.4 20:52:01 10° SSW 20:57:10 81° ESE 21:02:24 10° NNE
Cosmos 2026 Rocket 4.5 20:59:16 10° SSW 21:05:15 64° W 21:11:22 10° N
CZ-4 DEB 3.8 21:03:44 10° S 21:06:49 45° W 21:09:55 10° NNW
Meteor 1-21 Rocket 4.2 21:03:11 10° S 21:08:42 69° E 21:14:11 10° NNE
H-2A R/B 2.2 21:08:11 12° SSE 21:12:23 66° ENE 21:16:54 10° N
Envisat 3.2 21:10:49 13° SSE 21:15:09 55° ENE 21:20:07 10° N
Cosmos 2058 4.5 21:19:09 17° ESE 21:20:00 18° E 21:22:47 10° NE
Cosmos 2292 4.1 21:17:09 10° N 21:20:08 70° E 21:22:21 19° SSE
Cosmos 1328 Rocket 3.5 21:16:06 10° N 21:20:34 86° E 21:24:36 12° S
DELTA 2 R/B (1) 4.3 21:15:21 10° WNW 21:20:46 51° N 21:26:10 10° E
Meteor 2-20 4.4 21:15:29 10° S 21:21:34 69° E 21:27:40 10° NNE
YAOGAN 6 4.1 21:20:33 18° ESE 21:21:54 22° ENE 21:24:47 10° NNE
ERS-1 Rocket 3.3 21:19:32 10° S 21:24:31 67° WSW 21:29:33 10° NNW
Cosmos 371 Rocket 3.3 21:20:22 10° NNW 21:25:11 80° WSW 21:29:05 15° S
Cosmos 2228 Rocket 3.6 21:21:41 10° NNW 21:26:06 61° W 21:30:32 10° S
USA 186 4.5 21:25:53 10° W 21:26:07 10° W 21:26:20 10° W
Cosmos 1437 3.7 21:25:22 26° ESE 21:26:09 29° E 21:29:03 10° NNE
SPOT 5 2.9 21:25:09 20° SE 21:28:03 54° ENE 21:32:38 10° N
Cosmos 405 3.8 21:25:16 10° N 21:28:38 35° ENE 21:29:54 27° ESE
ALOS 4.3 21:24:52 10° SSW 21:28:39 24° W 21:32:27 10° NW
S3M 4.1 21:24:27 10° N 21:30:33 77° W 21:36:40 10° S
Cosmos 1777 Rocket 4.1 21:26:05 10° SSW 21:31:21 82° WNW 21:36:39 10° NNE
CZ-2C R/B 2.0 21:33:24 18° WSW 21:33:47 20° W 21:35:10 10° NW
Cosmos 1500 Rocket 4.0 21:32:36 10° SSW 21:36:53 61° W 21:41:14 10° N
MetOp-A 4.3 21:36:13 23° SE 21:39:32 60° ENE 21:44:48 10° N
ARGOS 4.0 21:37:20 22° ESE 21:39:54 34° ENE 21:44:43 10° N
H-2A R/B 3.8 21:41:19 15° E 21:43:15 18° ENE 21:46:48 10° NNE
PSLV R/B 3.0 21:42:34 43° SSE 21:43:28 78° ENE 21:46:33 10° N
Cosmos 2219 3.3 21:43:34 13° S 21:48:33 55° ESE 21:54:08 10° NNE
UNK 4.5 21:44:26 10° NNE 21:50:38 87° ESE 21:56:57 10° SSW
ATLAS CENTAUR R/B 3.1 21:47:12 10° NW 21:50:54 27° WSW 21:53:26 15° SSW
Delta 2 Rocket 2.6 21:50:42 10° WSW 21:54:12 86° SSE 21:55:06 46° E
SPOT 1/Viking Rocket 3.7 21:52:44 31° SE 21:54:58 56° ENE 22:00:01 10° N
NOSS 3-1 (C) 3.4 21:50:48 10° S 21:56:16 52° ESE 22:02:17 10° NE
Cosmos 1726 3.8 21:54:28 10° NNE 21:57:09 21° ENE 21:57:09 21° ENE
Cosmos 2322 3.8 21:54:48 10° NNW 22:00:29 63° ENE 22:02:51 35° SE
FALCON 9 R/B 4.3 21:24:44 10° WSW 22:01:18 85° S 22:09:15 10° E
USA 245 3.1 22:03:51 44° NNE 22:03:51 44° NNE 22:05:49 10° N
Cosmos 1680 Rocket 3.6 21:58:08 10° N 22:03:21 63° ENE 22:05:13 38° SE
Cosmos 883 Rocket 4.5 21:58:29 10° N 22:04:43 84° W 22:08:28 25° S
Cosmos 2322 Rocket 3.4 22:01:06 10° NW 22:06:10 36° WSW 22:10:01 16° SSW
Cosmos 1908 3.9 22:02:35 10° NNW 22:06:23 51° W 22:08:02 29° SSW
Cosmos 923 Rocket 3.9 22:01:26 10° NNW 22:06:40 90° WSW 22:08:44 38° SSE
CZ-3A R/B 3.8 21:39:41 10° WSW 22:07:17 44° SSW 22:09:37 33° SE
Cosmos 304 Rocket 3.7 22:05:14 10° NNW 22:10:04 76° ENE 22:11:25 47° SSE
Cosmos 2150 Rocket 4.3 22:11:46 41° SE 22:12:56 48° ESE 22:18:11 10° NNE
Cosmos 1898 Rocket 3.7 22:13:30 44° SE 22:14:14 47° ESE 22:19:12 10° NNE
Landsat 7 4.4 22:13:55 38° E 22:14:42 41° ENE 22:19:10 10° N
NOAA 11 4.2 22:13:06 41° SE 22:15:00 70° ENE 22:20:25 10° N
CZ-4B R/B 3.8 22:10:12 10° N 22:15:27 68° WNW 22:19:28 17° SSW
SL-16 R/B 3.6 22:10:34 10° NW 22:15:32 32° WSW 22:19:09 17° SSW
Cosmos 2360 Rocket 2.1 22:11:33 10° NNW 22:17:14 90° E 22:19:14 42° SSE
Meteor 1-11 4.2 22:15:56 34° S 22:18:32 76° E 22:24:17 10° NNE
Cosmos 1633 Rocket 3.1 22:19:20 54° E 22:19:27 54° E 22:23:45 10° NNE
Sich 1 3.1 22:19:29 57° ESE 22:19:47 59° E 22:24:08 10° NNE
DMSP B5D2-2 4.5 22:18:15 10° NNE 22:23:12 42° E 22:23:22 42° ESE
Cosmos 2315 Rocket 4.0 22:18:11 10° N 22:24:23 83° W 22:27:09 36° S
Cosmos 2151 4.3 22:23:19 17° SW 22:26:03 35° W 22:29:56 10° NNW
Terra 2.4 22:30:16 41° E 22:30:34 42° ENE 22:35:02 10° N
Cosmos 1626 4.5 22:34:25 15° NE 22:34:25 15° NE 22:35:22 10° NE
Cosmos 1805 Rocket 4.1 22:31:18 37° SW 22:32:48 57° W 22:37:12 10° N
Meteor 1-4 Rocket 3.9 22:30:20 10° N 22:32:55 32° NE 22:32:55 32° NE
Cosmos 1300 2.8 22:31:40 10° N 22:35:14 75° NNW 22:35:14 75° NNW
Cosmos 2227 Rocket 3.1 22:39:32 33° E 22:39:32 33° E 22:43:39 10° NE
CZ-4C R/B 3.8 22:43:31 51° NNW 22:43:31 51° NNW 22:46:13 10° NNW
OAO 2 Rocket 4.3 22:40:29 10° WSW 22:43:37 34° SW 22:43:37 34° SW
USA 32 3.9 22:41:17 10° N 22:46:33 76° E 22:47:01 70° SE
Cosmos 2333 Rocket 3.4 22:43:21 10° N 22:48:15 28° ENE 22:49:11 27° ENE
Spot 2 4.4 22:44:48 10° NNE 22:49:48 68° E 22:49:48 68° E
SL-16 R/B 4.5 22:51:46 10° NNE 22:53:48 12° NE 22:55:32 10° ENE
Cosmos 1707 Rocket 4.1 22:50:35 10° NNW 22:54:47 49° W 22:54:58 48° WSW
Cosmos 1666 Rocket 4.5 22:54:06 39° WSW 22:54:52 43° W 22:59:05 10° N
Nadezhda 1 Rocket 4.0 22:50:28 10° N 22:56:27 58° E 22:57:04 55° ESE
Cosmos 1455 4.0 22:55:01 10° NNE 22:56:59 24° NE 22:56:59 24° NE
NOSS 3-1 (A) 3.6 22:54:37 21° SW 22:58:34 69° WNW 23:04:56 10° NNE
COSMOS 2428 2.5 22:54:20 10° NNW 23:00:02 84° WSW 23:00:36 73° S
Cosmos 1745 Rocket 3.9 23:01:49 56° SSW 23:03:16 84° W 23:09:29 10° N
Cosmos 2297 Rocket 3.1 23:07:31 35° ENE 23:07:31 35° ENE 23:11:25 10° NE
DELTA 2 R/B (1) 3.4 23:01:55 10° WNW 23:07:27 86° SW 23:07:27 86° SW
Cosmos 1470 Rocket 4.1 23:09:04 55° N 23:09:04 55° N 23:12:29 10° N
Cosmos 1933 Rocket 4.0 23:10:27 59° N 23:10:27 59° N 23:14:07 10° N
Cosmos 1709 Rocket 4.3 23:12:07 47° E 23:12:07 47° E 23:17:43 10° NNE
Cosmos 1937 Rocket 3.9 23:16:58 53° WSW 23:17:41 58° WNW 23:22:50 10° N
IGS 5A 4.5 23:20:25 44° NW 23:20:25 44° NW 23:23:33 10° NNW
Cosmos 2219 Rocket 2.2 23:14:38 10° NNW 23:20:07 70° ENE 23:20:07 70° ENE
ATLAS 2AS CENTAUR R/B 2.8 23:20:01 62° SSE 23:20:55 67° ESE 23:28:48 10° NE
H-2A R/B 2.6 23:21:57 50° WSW 23:22:10 50° W 23:27:25 10° NNW
COSMOS 2455 4.5 23:19:11 10° N 23:23:51 23° NE 23:25:14 21° ENE
Cosmos 1271 Rocket 4.5 23:22:58 10° NNW 23:25:18 30° NW 23:25:18 30° NW
Cosmos 990 Rocket 4.3 23:33:28 58° WNW 23:33:28 58° WNW 23:38:27 10° N
Cosmos 1980 3.9 23:28:24 10° NNW 23:33:40 63° NE 23:33:40 63° NE
Cosmos 2181 Rocket 4.3 23:29:27 10° N 23:35:40 53° E 23:35:40 53° E
NOSS 0 Rocket 3.8 23:39:24 10° NNW 23:45:22 81° WNW 23:45:22 81° WNW
Cosmos 2082 4.0 23:45:28 60° W 23:45:44 61° WNW 23:51:25 10° NNE
Cosmos 2237 Rocket 2.3 23:41:44 10° NNW 23:46:53 70° NNE 23:46:53 70° NNE
ATLAS 3B R/B 3.7 23:41:31 10° NNW 23:47:49 35° NE 23:49:26 31° ENE
